Location: Calvin Observatory
(42.9309°N, 85.5886°W)
Time: 17:17:05
(UTC-05:00)

ISS - Visible Passes

Search period start: 10 December 2016 00:00
Search period end: 20 December 2016 00:00
Orbit: 401 x 409 km, 51.6° (Epoch: 10 December)

Date Brightness Start Highest point End Pass type
(mag) Time Alt. Az. Time Alt. Az. Time Alt. Az.
10 Dec -1.3 18:06:41 10° NW 18:09:03 18° N 18:10:47 13° NNE visible
11 Dec -1.4 18:51:36 10° NW 18:53:34 19° N 18:53:34 19° N visible
12 Dec -1.4 17:59:30 10° NW 18:01:53 18° N 18:03:43 13° NE visible
12 Dec -0.4 19:35:56 10° NW 19:36:24 13° NW 19:36:24 13° NW visible
13 Dec -2.0 18:44:00 10° NW 18:46:36 26° N 18:46:36 26° N visible
14 Dec -1.7 17:52:01 10° NW 17:54:38 21° NNE 17:56:53 12° ENE visible
14 Dec -1.1 19:28:15 10° NW 19:29:34 22° NW 19:29:34 22° NW visible
15 Dec -2.9 18:36:17 10° NW 18:39:27 43° NNE 18:39:59 39° NE visible
16 Dec -2.3 17:44:18 10° NW 17:47:16 30° NNE 17:50:14 10° E visible
16 Dec -2.1 19:20:41 10° WNW 19:23:17 42° WSW 19:23:17 42° WSW visible
17 Dec -3.4 18:28:33 10° WNW 18:31:51 89° NNE 18:34:08 19° ESE visible
17 Dec 0.2 20:06:40 10° WSW 20:06:51 10° WSW 20:06:51 10° WSW visible
18 Dec -3.1 17:36:30 10° NW 17:39:45 52° NNE 17:42:58 10° ESE visible
18 Dec -0.8 19:13:27 10° W 19:16:02 21° SW 19:18:04 13° S visible
19 Dec -1.8 18:20:58 10° WNW 18:24:04 38° SW 18:27:10 10° SSE visible
